[[{"header":{"parameterUnit":"m.s-1","parameterCategory":1,"la1":30.2991,"la2":30.254,"lo1":-89.0895,"lo2":-89.0444,"dy":0.0017,"dx":0.0017,"nx":28,"ny":28,"refTime":"2025-01-13T03:00:00:Z","depth":0,"parameterNumber":2,"parameterNumberName":"U-component_of_WINDS"},"data":[0,0,0,0,0,0,0,0,0,0,0,0,0,0,0,0,0,0,0,0,0,0,0,0,0,0,0,0,0,0,0,0,0,0,0,0,0,0,0,0,0,0,0,0,0,0,0,0,0,0,0,0,0,0,0,0,0,0,-2.4625,-2.4625,0,-2.4647,-2.4647,-2.4647,-2.46,-2.4599,-2.4597,-2.4596,-2.4621,-2.4623,-2.4625,0,0,0,0,0,0,0,0,0,0,0,0,0,-2.4545,-2.4547,-2.4625,-2.4625,-2.4626,-2.4647,-2.4647,-2.4647,-2.4601,-2.4599,-2.4597,-2.4595,-2.462,-2.4622,-2.4625,0,0,0,0,0,0,0,0,0,0,0,0,0,-2.4575,-2.4547,-2.4625,-2.4605,-2.4603,-2.4647,-2.4647,-2.4647,-2.4601,-2.4599,-2.4596,-2.4594,-2.4619,-2.4622,-2.4625,-2.469,0,0,-2.4635,-2.4636,0,0,0,0,0,0,0,0,-2.4573,-2.4578,-2.4607,-2.4606,-2.4604,-2.4618,-2.4628,-2.4662,-2.4602,-2.4602,-2.4596,-2.4593,-2.4622,-2.4625,-2.4634,-2.4691,-2.4692,-2.4635,-2.4637,-2.4638,-2.4639,0,0,0,0,0,0,0,-2.4571,-2.4577,-2.4634,-2.4608,-2.4606,-2.4595,-2.4597,-2.4634,-2.4625,-2.4602,-2.4598,-2.4601,-2.4621,-2.4631,-2.4634,-2.4693,-2.4635,-2.4638,-2.464,-2.4641,-2.4804,-2.4807,0,0,0,0,0,0,-2.4571,-2.4575,-2.4633,-2.4634,-2.4583,-2.4599,-2.46,-2.4616,-2.4624,-2.4623,-2.4603,-2.4599,-2.4627,-2.463,-2.4635,-2.4711,-2.4638,-2.4641,-2.4643,-2.4802,-2.4805,-2.4808,0,0,0,0,0,0,-2.457,-2.4577,-2.4632,-2.4604,-2.461,-2.4602,-2.4621,-2.4618,-2.4628,-2.4625,-2.4623,-2.4615,-2.4625,-2.463,-2.4676,-2.4711,-2.4643,-2.4645,-2.4799,-2.4803,-2.4806,-2.4865,0,0,0,0,0,0,-2.4568,-2.4577,-2.4601,-2.4605,-2.4612,-2.4673,-2.4623,-2.462,-2.4633,-2.4628,-2.4636,-2.4635,-2.4624,-2.4672,-2.468,-2.4714,-2.4648,-2.4796,-2.4801,-2.4805,-2.486,-2.487,-2.4879,0,0,0,0,0,-2.4565,-2.4617,-2.4602,-2.461,-2.4642,-2.4675,-2.4679,-2.4664,-2.4636,-2.4661,-2.4659,-2.4635,-2.4706,-2.4677,-2.4685,-2.4722,-2.4794,-2.4799,-2.4805,-2.4855,-2.4868,-2.4879,0,0,0,0,0,0,-2.4619,-2.4617,-2.4601,-2.4655,-2.4666,-2.4667,-2.4698,-2.4678,-2.4697,-2.4691,-2.4673,-2.4675,-2.4725,-2.4728,-2.4695,-2.4785,-2.4745,-2.4753,-2.4781,-2.4793,-2.4802,-2.4801,-2.465,0,0,0,0,0,-2.4636,-2.4663,-2.4661,-2.4709,-2.4715,-2.4706,-2.472,-2.4707,-2.4717,-2.4722,-2.4723,-2.4734,-2.4759,-2.4776,-2.4799,-2.486,-2.4861,-2.4888,-2.4898,-2.4906,-2.4913,-2.4945,-2.4957,-2.4826,-2.4826,-2.4826,0,0,-2.4674,-2.4677,-2.4695,-2.472,-2.4726,-2.4755,-2.471,-2.4742,-2.4763,-2.4727,-2.477,-2.4772,-2.4783,-2.4837,-2.4861,-2.4841,-2.4949,-2.4913,-2.4919,-2.4922,-2.4952,-2.4965,-2.4976,-2.483,-2.4829,-2.4828,0,0,-2.4758,-2.4762,-2.4803,-2.481,-2.482,-2.4813,-2.4823,-2.4827,-2.4827,-2.487,-2.4843,-2.4868,-2.4911,-2.4921,-2.4931,-2.5017,-2.4996,-2.5025,-2.5076,-2.5108,-2.5118,-2.5127,-2.5158,-2.5169,-2.5032,-2.5032,-2.5032,0,-2.4804,-2.4845,-2.4827,-2.4861,-2.4873,-2.484,-2.4881,-2.4889,-2.4907,-2.4916,-2.4893,-2.4947,-2.4952,-2.5007,-2.5028,-2.5038,-2.5049,-2.5025,-2.5118,-2.5127,-2.5135,-2.5164,-2.5176,-2.5036,-2.5035,-2.5035,-2.5035,0,-2.4901,-2.493,-2.4962,-2.4979,-2.4994,-2.5032,-2.502,-2.5038,-2.5024,-2.502,-2.5064,-2.5069,-2.5092,-2.5104,-2.5091,-2.5158,-2.5145,-2.5121,-2.5081,-2.5151,-2.5179,-2.519,-2.5041,-2.504,-2.5039,-2.5038,0,0,-2.502,-2.5025,-2.5037,-2.5044,-2.5052,-2.5075,-2.5111,-2.5133,-2.5149,-2.5162,-2.5192,-2.5229,-2.5206,-2.5218,-2.5205,-2.5233,-2.5301,-2.5205,-2.5205,-2.5223,-2.5375,-2.5394,-2.5408,-2.5287,-2.5289,-2.5291,-2.5374,0,-2.5103,-2.5164,-2.5148,-2.521,-2.5237,-2.5206,-2.5237,-2.5246,-2.5243,-2.5266,-2.5262,-2.5289,-2.5256,-2.5263,-2.5289,-2.5288,-2.5332,-2.5281,-2.5316,-2.5317,-2.5314,-2.5422,-2.5442,-2.5521,-2.5385,-2.5387,-2.5388,0,-2.5208,-2.5224,-2.5288,-2.5291,-2.5302,-2.533,-2.5349,-2.5371,-2.538,-2.5376,-2.5389,-2.5371,-2.5407,-2.5366,-2.5416,-2.5382,-2.5395,-2.5397,-2.5399,-2.5403,-2.5357,-2.5428,-2.5546,-2.5558,-2.5405,-2.5403,-2.5402,0,-2.5288,-2.5326,-2.5369,-2.5375,-2.5381,-2.5401,-2.5405,-2.5412,-2.5426,-2.5442,-2.5451,-2.5472,-2.5483,-2.55,-2.5488,-2.546,-2.554,-2.5499,-2.5539,-2.5539,-2.5557,-2.5557,-2.5679,-2.5565,-2.5565,-2.5565,-2.5565,0,-2.5383,-2.5423,-2.5405,-2.5431,-2.5476,-2.5457,-2.5502,-2.5502,-2.5508,-2.5534,-2.5509,-2.5534,-2.5517,-2.5541,-2.5532,-2.5575,-2.5581,-2.5579,-2.5576,-2.5581,-2.5582,-2.559,-2.5584,-2.5568,-2.5567,-2.5567,-2.5566,0,-2.548,-2.547,-2.5514,-2.5515,-2.5516,-2.5549,-2.555,-2.5575,-2.5569,-2.5603,-2.561,-2.5602,-2.5629,-2.5619,-2.5648,-2.5642,-2.5697,-2.5687,-2.5693,-2.5691,-2.5731,-2.5728,-2.5864,-2.5881,-2.5756,-2.5757,-2.5758,0,-2.5542,-2.5572,-2.5575,-2.5591,-2.5595,-2.5621,-2.5634,-2.5617,-2.5633,-2.5646,-2.5669,-2.5694,-2.5713,-2.5757,-2.5755,-2.5777,-2.5767,-2.5813,-2.577,-2.5775,-2.5768,-2.5767,-2.577,-2.5822,-2.5824,-2.5825,-2.5826,0,-2.5651,-2.5644,-2.5665,-2.5684,-2.5701,-2.5715,-2.5727,-2.5741,-2.5724,-2.5743,-2.577,-2.5785,-2.5814,-2.5839,-2.5858,-2.5862,-2.5842,-2.5839,-2.5849,-2.5855,-2.5858,-2.5857,-2.5717,-2.5836,-2.5835,-2.5834,-2.5834,-2.5833,-2.5733,-2.5758,-2.5765,-2.5788,-2.5795,-2.5807,-2.583,-2.5827,-2.5849,-2.5871,-2.5859,-2.5891,-2.5899,-2.5923,-2.593,-2.5954,-2.5937,-2.5952,-2.5956,-2.596,-2.5965,-2.5854,-2.5958,-2.5958,-2.5957,-2.5957,-2.5957,0,-2.5842,-2.5844,-2.5866,-2.5883,-2.5902,-2.5879,-2.5891,-2.5909,-2.5936,-2.5945,-2.5964,-2.5995,-2.6019,-2.6018,-2.604,-2.606,-2.6051,-2.6066,-2.6065,-2.6066,-2.598,-2.5968,-2.6073,-2.6073,-2.6073,-2.6073,-2.6073,-2.6073,-2.5901,-2.5942,-2.5936,-2.5981,-2.5983,-2.6013,-2.6021,-2.6032,-2.6039,-2.6074,-2.6094,-2.6092,-2.6098,-2.612,-2.6141,-2.614,-2.6149,-2.6168,-2.6164,-2.6084,-2.6072,-2.6061,-2.6051,-2.6171,-2.6171,-2.6248,-2.6249,-2.625]},{"header":{"parameterUnit":"m.s-1","parameterCategory":1,"la1":30.2991,"la2":30.254,"lo1":-89.0895,"lo2":-89.0444,"dy":0.0017,"dx":0.0017,"nx":28,"ny":28,"refTime":"2025-01-13T03:00:00:Z","depth":0,"parameterNumber":3,"parameterNumberName":"V-component_of_WINDS"},"data":[0,0,0,0,0,0,0,0,0,0,0,0,0,0,0,0,0,0,0,0,0,0,0,0,0,0,0,0,0,0,0,0,0,0,0,0,0,0,0,0,0,0,0,0,0,0,0,0,0,0,0,0,0,0,0,0,0,0,-3.9866,-3.9866,0,-3.9909,-3.991,-3.991,-3.9879,-3.9878,-3.9877,-3.9875,-3.9917,-3.992,-3.9922,0,0,0,0,0,0,0,0,0,0,0,0,0,-3.9752,-3.9754,-3.9866,-3.9866,-3.9867,-3.9909,-3.991,-3.9911,-3.988,-3.9878,-3.9876,-3.9875,-3.9917,-3.9919,-3.9922,0,0,0,0,0,0,0,0,0,0,0,0,0,-3.9799,-3.9755,-3.9866,-3.9857,-3.9856,-3.9909,-3.991,-3.9911,-3.988,-3.9878,-3.9876,-3.9874,-3.9916,-3.9919,-3.9923,-3.9986,0,0,-3.9934,-3.9935,0,0,0,0,0,0,0,0,-3.9796,-3.9803,-3.9857,-3.9857,-3.9857,-3.9887,-3.9885,-3.9936,-3.988,-3.9871,-3.9875,-3.9873,-3.9909,-3.9913,-3.9925,-3.9988,-3.999,-3.9934,-3.9936,-3.9938,-3.9939,0,0,0,0,0,0,0,-3.9793,-3.9801,-3.9883,-3.9858,-3.9858,-3.9849,-3.9854,-3.9895,-3.9901,-3.9871,-3.9869,-3.9875,-3.9908,-3.9922,-3.9926,-3.9991,-3.9934,-3.9937,-3.9939,-3.9941,-4.0108,-4.011,0,0,0,0,0,0,-3.9791,-3.9799,-3.9882,-3.9884,-3.9821,-3.9853,-3.9858,-3.9879,-3.99,-3.9901,-3.9877,-3.9873,-3.9917,-3.9922,-3.9928,-4.0004,-3.9938,-3.9941,-3.9943,-4.0105,-4.0108,-4.0111,0,0,0,0,0,0,-3.9789,-3.9799,-3.988,-3.9841,-3.9851,-3.9857,-3.9881,-3.9881,-3.9895,-3.9904,-3.9905,-3.989,-3.9915,-3.9922,-3.9972,-4.0005,-3.9943,-3.9946,-4.0103,-4.0106,-4.0109,-4.0157,0,0,0,0,0,0,-3.9786,-3.9798,-3.9823,-3.9842,-3.9853,-3.9925,-3.9883,-3.9884,-3.9902,-3.9898,-3.9917,-3.9918,-3.9914,-3.9967,-3.9976,-4.0009,-3.9949,-4.01,-4.0104,-4.0108,-4.0152,-4.0161,-4.0169,0,0,0,0,0,-3.9782,-3.9834,-3.9825,-3.9835,-3.9885,-3.9927,-3.9933,-3.9928,-3.9905,-3.9929,-3.9935,-3.9917,-3.9999,-3.9972,-3.9982,-4.0016,-4.0098,-4.0103,-4.0108,-4.0148,-4.0159,-4.0169,0,0,0,0,0,0,-3.9819,-3.9837,-3.9826,-3.9887,-3.9906,-3.9921,-3.9953,-3.994,-3.9966,-3.9961,-3.9953,-3.9958,-4.001,-4.0018,-3.9987,-4.0079,-4.0045,-4.0052,-4.0072,-4.0083,-4.0091,-4.0088,-3.9952,0,0,0,0,0,-3.9834,-3.9868,-3.9881,-3.9933,-3.9943,-3.9946,-3.9965,-3.9959,-3.9978,-3.9986,-3.9995,-4.0014,-4.0043,-4.0063,-4.0091,-4.0153,-4.0156,-4.0181,-4.0189,-4.0196,-4.0203,-4.0236,-4.0247,-4.0127,-4.0127,-4.0127,0,0,-3.9866,-3.988,-3.9901,-3.9941,-3.9955,-3.9989,-3.9953,-3.9991,-4.0016,-3.9991,-4.0039,-4.0047,-4.0066,-4.0122,-4.0147,-4.0131,-4.0237,-4.0203,-4.0208,-4.0211,-4.0242,-4.0254,-4.0264,-4.0131,-4.013,-4.013,0,0,-3.9941,-3.9955,-4.0,-4.0015,-4.0037,-4.0039,-4.005,-4.0068,-4.0072,-4.012,-4.0102,-4.0131,-4.0183,-4.0198,-4.0212,-4.0292,-4.0277,-4.0301,-4.0346,-4.0378,-4.0388,-4.0396,-4.0425,-4.0436,-4.0308,-4.0308,-4.0308,0,-3.9978,-4.003,-4.0025,-4.0064,-4.0082,-4.0061,-4.0106,-4.0121,-4.015,-4.0163,-4.0143,-4.0208,-4.0219,-4.0279,-4.0298,-4.031,-4.0322,-4.03,-4.0387,-4.0395,-4.0403,-4.0431,-4.0442,-4.0311,-4.0311,-4.031,-4.031,0,-4.0074,-4.0111,-4.0144,-4.0175,-4.0196,-4.0238,-4.0238,-4.0259,-4.0252,-4.0255,-4.0304,-4.0317,-4.0348,-4.0361,-4.0354,-4.0419,-4.0408,-4.0388,-4.0354,-4.0417,-4.0443,-4.0454,-4.0315,-4.0314,-4.0313,-4.0312,0,0,-4.0176,-4.0202,-4.0215,-4.0228,-4.0251,-4.0278,-4.0319,-4.0349,-4.0368,-4.0389,-4.0423,-4.0466,-4.0448,-4.0464,-4.0458,-4.0486,-4.055,-4.0462,-4.0463,-4.0479,-4.0623,-4.0639,-4.0651,-4.0539,-4.0541,-4.0543,-4.0621,0,-4.0253,-4.0326,-4.0321,-4.0389,-4.0422,-4.0403,-4.0438,-4.0455,-4.0459,-4.0487,-4.049,-4.0522,-4.0495,-4.0504,-4.0531,-4.0536,-4.0579,-4.053,-4.057,-4.0572,-4.0567,-4.0665,-4.0682,-4.0756,-4.0631,-4.0633,-4.0634,0,-4.0354,-4.0379,-4.0451,-4.0468,-4.0482,-4.0514,-4.0541,-4.0568,-4.0587,-4.0587,-4.0606,-4.0595,-4.0635,-4.0598,-4.0653,-4.062,-4.0636,-4.0641,-4.0643,-4.0648,-4.0608,-4.0673,-4.0779,-4.079,-4.065,-4.0649,-4.0648,0,-4.0422,-4.0473,-4.0523,-4.0535,-4.0556,-4.0579,-4.0589,-4.0605,-4.0624,-4.0647,-4.0659,-4.0686,-4.0702,-4.0722,-4.0719,-4.0693,-4.0775,-4.0738,-4.0776,-4.0776,-4.0795,-4.0794,-4.0907,-4.0804,-4.0803,-4.0803,-4.0803,0,-4.051,-4.0554,-4.0554,-4.0584,-4.0633,-4.0627,-4.0675,-4.0682,-4.0697,-4.0727,-4.0711,-4.074,-4.0733,-4.0761,-4.0758,-4.0804,-4.0811,-4.0812,-4.0811,-4.0815,-4.0814,-4.0825,-4.0821,-4.0806,-4.0806,-4.0805,-4.0804,0,-4.0595,-4.0596,-4.0649,-4.0665,-4.067,-4.0705,-4.0718,-4.0746,-4.0748,-4.0788,-4.0796,-4.0799,-4.0832,-4.083,-4.0866,-4.0864,-4.0921,-4.0913,-4.0916,-4.0914,-4.0953,-4.095,-4.1077,-4.1093,-4.0979,-4.098,-4.0981,0,-4.0651,-4.0685,-4.0705,-4.0725,-4.0737,-4.0769,-4.0788,-4.0782,-4.0803,-4.0826,-4.0851,-4.0882,-4.0907,-4.096,-4.0965,-4.0992,-4.0985,-4.1028,-4.099,-4.0992,-4.0987,-4.0986,-4.0989,-4.1036,-4.1037,-4.1038,-4.1039,0,-4.0752,-4.0751,-4.078,-4.0809,-4.0832,-4.0855,-4.0875,-4.0892,-4.0888,-4.0912,-4.0945,-4.0965,-4.1002,-4.1033,-4.1059,-4.1068,-4.1053,-4.1051,-4.1062,-4.1066,-4.1066,-4.1067,-4.0937,-4.1049,-4.1048,-4.1047,-4.1047,-4.1046,-4.0825,-4.0854,-4.0873,-4.0905,-4.092,-4.094,-4.0967,-4.0973,-4.1001,-4.1032,-4.1026,-4.1064,-4.1081,-4.1115,-4.1126,-4.1154,-4.1139,-4.1154,-4.1158,-4.1162,-4.1167,-4.1061,-4.1159,-4.1158,-4.1158,-4.1158,-4.1158,0,-4.0925,-4.0936,-4.0966,-4.0996,-4.1021,-4.1006,-4.1027,-4.1049,-4.1083,-4.11,-4.1125,-4.1163,-4.1193,-4.12,-4.1228,-4.125,-4.1244,-4.1257,-4.1256,-4.1259,-4.1178,-4.1167,-4.1262,-4.1262,-4.1262,-4.1262,-4.1262,-4.1262,-4.0981,-4.103,-4.1031,-4.1087,-4.1097,-4.1135,-4.1148,-4.1166,-4.1179,-4.1224,-4.1249,-4.1253,-4.1266,-4.1295,-4.1321,-4.1322,-4.1334,-4.1351,-4.1349,-4.1274,-4.1264,-4.1254,-4.1244,-4.1353,-4.1353,-4.1427,-4.1428,-4.1428]}]]